Time,TemperatureF,DewpointF,PressureIn,WindDirection,WindDirectionDegrees,WindSpeedMPH,WindSpeedGustMPH,Humidity,HourlyPrecipIn,Conditions,Clouds,dailyrainin,SoftwareType,DateUTC
2013-10-07 00:02:00,47.5,42.9,29.37,WNW,293,1.1,4.0,84,0.00,,,0.00,WUHU216HW,2013-10-07 05:02:00,
2013-10-07 00:03:00,47.5,42.9,29.37,West,270,2.9,2.9,84,0.00,,,0.00,WUHU216HW,2013-10-07 05:03:00,
2013-10-07 00:08:00,47.5,42.9,29.37,West,270,0.4,2.9,84,0.00,,,0.00,WUHU216HW,2013-10-07 05:08:00,
2013-10-07 00:13:00,47.5,42.9,29.37,WSW,248,2.5,2.5,84,0.00,,,0.00,WUHU216HW,2013-10-07 05:13:00,
2013-10-07 00:18:00,47.5,42.9,29.37,NW,315,3.1,3.1,84,0.00,,,0.00,WUHU216HW,2013-10-07 05:18:00,
2013-10-07 00:23:00,47.5,43.2,29.37,WNW,293,1.1,3.1,85,0.00,,,0.00,WUHU216HW,2013-10-07 05:23:00,
2013-10-07 00:28:00,47.5,42.9,29.36,West,270,0.9,3.1,84,0.00,,,0.00,WUHU216HW,2013-10-07 05:28:00,
2013-10-07 00:33:00,47.5,42.9,29.36,West,270,2.5,2.5,84,0.00,,,0.00,WUHU216HW,2013-10-07 05:33:00,
2013-10-07 00:38:00,47.5,42.9,29.37,West,270,1.1,3.6,84,0.00,,,0.00,WUHU216HW,2013-10-07 05:38:00,
2013-10-07 00:43:00,47.5,42.9,29.37,NNW,338,2.0,3.6,84,0.00,,,0.00,WUHU216HW,2013-10-07 05:43:00,
2013-10-07 00:48:00,47.3,42.8,29.37,WNW,293,1.3,3.4,84,0.00,,,0.00,WUHU216HW,2013-10-07 05:48:00,
2013-10-07 00:53:00,47.3,43.0,29.38,West,270,4.0,4.0,85,0.00,,,0.00,WUHU216HW,2013-10-07 05:53:00,
2013-10-07 00:58:00,47.2,42.9,29.37,WNW,293,2.5,4.0,85,0.00,,,0.00,WUHU216HW,2013-10-07 05:58:00,
2013-10-07 01:03:00,47.3,43.0,29.37,West,270,1.1,3.4,85,0.00,,,0.00,WUHU216HW,2013-10-07 06:03:00,
2013-10-07 01:08:00,47.5,43.2,29.38,WNW,293,3.6,4.7,85,0.00,,,0.00,WUHU216HW,2013-10-07 06:08:00,
2013-10-07 01:13:00,47.3,43.0,29.38,West,270,3.1,4.7,85,0.00,,,0.00,WUHU216HW,2013-10-07 06:13:00,
2013-10-07 01:18:00,47.3,43.4,29.38,WSW,248,3.4,4.7,86,0.00,,,0.00,WUHU216HW,2013-10-07 06:18:00,
2013-10-07 01:23:00,47.3,43.4,29.38,WNW,293,2.9,5.8,86,0.00,,,0.00,WUHU216HW,2013-10-07 06:23:00,
2013-10-07 01:28:00,47.3,43.4,29.39,WNW,293,1.1,5.8,86,0.00,,,0.00,WUHU216HW,2013-10-07 06:28:00,
2013-10-07 01:33:00,47.3,43.4,29.39,West,270,4.3,6.9,86,0.00,,,0.00,WUHU216HW,2013-10-07 06:33:00,
2013-10-07 01:38:00,47.3,43.4,29.39,West,270,4.5,6.9,86,0.00,,,0.00,WUHU216HW,2013-10-07 06:38:00,
2013-10-07 01:43:00,47.3,43.4,29.39,NW,315,2.2,4.5,86,0.00,,,0.00,WUHU216HW,2013-10-07 06:43:00,
2013-10-07 01:48:00,47.3,43.4,29.39,WNW,293,4.7,6.9,86,0.00,,,0.00,WUHU216HW,2013-10-07 06:48:00,
2013-10-07 01:53:00,47.3,43.4,29.39,WNW,293,3.8,6.9,86,0.00,,,0.00,WUHU216HW,2013-10-07 06:53:00,
2013-10-07 01:58:00,47.3,43.4,29.39,WNW,293,3.6,6.5,86,0.00,,,0.00,WUHU216HW,2013-10-07 06:58:00,
2013-10-07 02:03:00,47.3,43.0,29.39,WNW,293,5.4,5.4,85,0.00,,,0.00,WUHU216HW,2013-10-07 07:03:00,
2013-10-07 02:08:00,47.2,42.9,29.39,WNW,293,2.5,5.4,85,0.00,,,0.00,WUHU216HW,2013-10-07 07:08:00,
2013-10-07 02:13:00,47.2,42.9,29.40,WNW,293,3.4,4.7,85,0.00,,,0.00,WUHU216HW,2013-10-07 07:13:00,
2013-10-07 02:18:00,46.8,42.8,29.40,WNW,293,5.1,5.1,86,0.00,,,0.00,WUHU216HW,2013-10-07 07:18:00,
2013-10-07 02:23:00,46.8,42.8,29.40,NW,315,2.9,6.3,86,0.00,,,0.00,WUHU216HW,2013-10-07 07:23:00,
2013-10-07 02:28:00,46.8,43.2,29.40,WNW,293,4.7,6.3,87,0.00,,,0.00,WUHU216HW,2013-10-07 07:28:00,
2013-10-07 02:33:00,46.8,43.2,29.40,West,270,3.4,5.1,87,0.00,,,0.00,WUHU216HW,2013-10-07 07:33:00,
2013-10-07 02:38:00,46.8,43.2,29.40,West,270,4.0,4.9,87,0.00,,,0.00,WUHU216HW,2013-10-07 07:38:00,
2013-10-07 02:43:00,46.8,43.2,29.40,WNW,293,2.5,4.3,87,0.00,,,0.00,WUHU216HW,2013-10-07 07:43:00,
2013-10-07 02:48:00,46.6,42.7,29.40,WNW,293,4.3,4.3,86,0.00,,,0.00,WUHU216HW,2013-10-07 07:48:00,
2013-10-07 02:53:00,46.8,42.8,29.40,WNW,293,3.4,4.3,86,0.00,,,0.00,WUHU216HW,2013-10-07 07:53:00,
2013-10-07 02:58:00,46.8,42.8,29.40,WNW,293,4.5,4.5,86,0.00,,,0.00,WUHU216HW,2013-10-07 07:58:00,
2013-10-07 03:03:00,46.8,42.8,29.40,WNW,293,2.2,4.5,86,0.00,,,0.00,WUHU216HW,2013-10-07 08:03:00,
2013-10-07 03:08:00,46.6,42.7,29.40,West,270,3.4,4.3,86,0.00,,,0.00,WUHU216HW,2013-10-07 08:08:00,
2013-10-07 03:13:00,46.6,42.7,29.41,NW,315,1.3,3.4,86,0.00,,,0.00,WUHU216HW,2013-10-07 08:13:00,
2013-10-07 03:18:00,46.6,43.0,29.41,WNW,293,3.4,3.6,87,0.00,,,0.00,WUHU216HW,2013-10-07 08:18:00,
2013-10-07 03:23:00,46.6,43.0,29.41,West,270,2.9,3.6,87,0.00,,,0.00,WUHU216HW,2013-10-07 08:23:00,
2013-10-07 03:28:00,46.8,42.8,29.41,WSW,248,3.4,6.0,86,0.00,,,0.00,WUHU216HW,2013-10-07 08:28:00,
2013-10-07 03:33:00,46.8,42.8,29.41,West,270,3.4,6.0,86,0.00,,,0.00,WUHU216HW,2013-10-07 08:33:00,
2013-10-07 03:38:00,46.8,42.8,29.41,WSW,248,1.8,4.3,86,0.00,,,0.00,WUHU216HW,2013-10-07 08:38:00,
2013-10-07 03:43:00,46.8,42.8,29.41,WNW,293,3.6,4.3,86,0.00,,,0.00,WUHU216HW,2013-10-07 08:43:00,
2013-10-07 03:48:00,46.8,42.8,29.41,West,270,2.2,5.6,86,0.00,,,0.00,WUHU216HW,2013-10-07 08:48:00,
2013-10-07 03:53:00,46.8,42.8,29.42,WNW,293,1.8,5.6,86,0.00,,,0.00,WUHU216HW,2013-10-07 08:53:00,
2013-10-07 03:58:00,46.8,42.8,29.42,NW,315,1.3,4.0,86,0.00,,,0.00,WUHU216HW,2013-10-07 08:58:00,
2013-10-07 04:03:00,46.6,42.7,29.41,West,270,3.4,4.0,86,0.00,,,0.00,WUHU216HW,2013-10-07 09:03:00,
2013-10-07 04:08:00,46.8,42.8,29.42,WNW,293,2.0,3.6,86,0.00,,,0.00,WUHU216HW,2013-10-07 09:08:00,
2013-10-07 04:13:00,46.8,42.6,29.42,WSW,248,2.5,2.5,85,0.00,,,0.00,WUHU216HW,2013-10-07 09:13:00,
2013-10-07 04:18:00,46.6,42.4,29.42,West,270,2.5,2.7,85,0.00,,,0.00,WUHU216HW,2013-10-07 09:18:00,
2013-10-07 04:23:00,46.6,42.7,29.43,West,270,2.0,2.7,86,0.00,,,0.00,WUHU216HW,2013-10-07 09:23:00,
2013-10-07 04:28:00,46.4,42.5,29.43,WNW,293,2.2,3.4,86,0.00,,,0.00,WUHU216HW,2013-10-07 09:28:00,
2013-10-07 04:33:00,46.4,42.5,29.43,NW,315,1.6,3.4,86,0.00,,,0.00,WUHU216HW,2013-10-07 09:33:00,
2013-10-07 04:38:00,46.6,43.3,29.44,WSW,248,7.6,7.6,88,0.00,,,0.00,WUHU216HW,2013-10-07 09:38:00,
2013-10-07 04:43:00,46.8,43.5,29.44,West,270,4.7,7.6,88,0.00,,,0.00,WUHU216HW,2013-10-07 09:43:00,
2013-10-07 04:48:00,46.8,43.5,29.44,WNW,293,5.4,6.3,88,0.00,,,0.00,WUHU216HW,2013-10-07 09:48:00,
2013-10-07 04:53:00,46.8,43.2,29.44,NW,315,1.8,6.3,87,0.00,,,0.00,WUHU216HW,2013-10-07 09:53:00,
2013-10-07 04:58:00,46.8,43.2,29.44,WNW,293,2.5,4.0,87,0.00,,,0.00,WUHU216HW,2013-10-07 09:58:00,
2013-10-07 05:03:00,46.8,43.2,29.44,West,270,2.5,3.1,87,0.00,,,0.00,WUHU216HW,2013-10-07 10:03:00,
2013-10-07 05:08:00,46.8,43.2,29.43,North,0,1.6,2.5,87,0.00,,,0.00,WUHU216HW,2013-10-07 10:08:00,
2013-10-07 05:13:00,46.8,42.8,29.44,West,270,1.8,2.2,86,0.00,,,0.00,WUHU216HW,2013-10-07 10:13:00,
2013-10-07 05:18:00,46.6,42.7,29.44,NW,315,0.7,1.8,86,0.00,,,0.00,WUHU216HW,2013-10-07 10:18:00,
2013-10-07 05:23:00,46.6,43.0,29.44,West,270,2.5,2.5,87,0.00,,,0.00,WUHU216HW,2013-10-07 10:23:00,
2013-10-07 05:28:00,46.4,42.9,29.44,West,270,2.5,3.8,87,0.00,,,0.00,WUHU216HW,2013-10-07 10:28:00,
2013-10-07 05:33:00,46.4,42.9,29.44,WNW,293,2.2,3.8,87,0.00,,,0.00,WUHU216HW,2013-10-07 10:33:00,
2013-10-07 05:38:00,46.4,42.9,29.45,WNW,293,2.5,3.6,87,0.00,,,0.00,WUHU216HW,2013-10-07 10:38:00,
2013-10-07 05:43:00,46.6,43.0,29.44,WSW,248,0.4,3.6,87,0.00,,,0.00,WUHU216HW,2013-10-07 10:43:00,
2013-10-07 05:48:00,46.8,43.2,29.44,SSW,203,0.0,3.4,87,0.00,,,0.00,WUHU216HW,2013-10-07 10:48:00,
2013-10-07 05:53:00,47.0,43.4,29.44,WSW,248,0.0,2.0,87,0.00,,,0.00,WUHU216HW,2013-10-07 10:53:00,
2013-10-07 05:58:00,47.2,43.6,29.44,SW,225,0.4,2.0,87,0.00,,,0.00,WUHU216HW,2013-10-07 10:58:00,
2013-10-07 06:03:00,47.2,43.6,29.44,WSW,248,1.8,1.8,87,0.00,,,0.00,WUHU216HW,2013-10-07 11:03:00,
2013-10-07 06:08:00,47.3,43.7,29.44,WSW,248,0.0,2.0,87,0.00,,,0.00,WUHU216HW,2013-10-07 11:08:00,
2013-10-07 06:13:00,47.3,43.7,29.44,WSW,248,1.1,2.0,87,0.00,,,0.00,WUHU216HW,2013-10-07 11:13:00,
2013-10-07 06:18:00,47.5,44.2,29.45,NW,315,1.1,1.6,88,0.00,,,0.00,WUHU216HW,2013-10-07 11:18:00,
2013-10-07 06:23:00,47.5,44.2,29.45,NNW,338,2.0,2.0,88,0.00,,,0.00,WUHU216HW,2013-10-07 11:23:00,
2013-10-07 06:28:00,47.7,44.4,29.45,West,270,1.8,4.7,88,0.00,,,0.00,WUHU216HW,2013-10-07 11:28:00,
2013-10-07 06:33:00,47.7,44.4,29.45,WNW,293,1.8,4.7,88,0.00,,,0.00,WUHU216HW,2013-10-07 11:33:00,
2013-10-07 06:38:00,47.7,44.6,29.45,WNW,293,1.6,2.5,89,0.00,,,0.00,WUHU216HW,2013-10-07 11:38:00,
2013-10-07 06:43:00,47.7,44.6,29.45,NW,315,2.5,3.6,89,0.00,,,0.00,WUHU216HW,2013-10-07 11:43:00,
2013-10-07 06:48:00,47.7,44.6,29.45,NW,315,1.8,3.6,89,0.00,,,0.00,WUHU216HW,2013-10-07 11:48:00,
2013-10-07 06:53:00,47.9,45.2,29.46,West,270,2.5,2.5,90,0.00,,,0.00,WUHU216HW,2013-10-07 11:53:00,
2013-10-07 06:58:00,47.9,44.8,29.46,West,270,4.0,4.0,89,0.00,,,0.00,WUHU216HW,2013-10-07 11:58:00,
2013-10-07 07:03:00,47.9,45.2,29.46,WNW,293,2.0,4.0,90,0.00,,,0.00,WUHU216HW,2013-10-07 12:03:00,
2013-10-07 07:08:00,47.9,45.2,29.46,WNW,293,1.1,3.1,90,0.00,,,0.00,WUHU216HW,2013-10-07 12:08:00,
2013-10-07 07:13:00,48.1,45.4,29.46,NNW,338,2.7,3.4,90,0.00,,,0.00,WUHU216HW,2013-10-07 12:13:00,
2013-10-07 07:18:00,48.1,45.4,29.46,NW,315,0.7,3.4,90,0.00,,,0.00,WUHU216HW,2013-10-07 12:18:00,
2013-10-07 07:23:00,48.2,45.5,29.47,WSW,248,3.6,3.8,90,0.00,,,0.00,WUHU216HW,2013-10-07 12:23:00,
2013-10-07 07:28:00,48.4,46.0,29.47,NW,315,3.4,3.8,91,0.00,,,0.00,WUHU216HW,2013-10-07 12:28:00,
2013-10-07 07:33:00,48.6,46.2,29.47,WNW,293,3.4,4.3,91,0.00,,,0.00,WUHU216HW,2013-10-07 12:33:00,
2013-10-07 07:38:00,48.6,46.2,29.47,WNW,293,3.4,4.9,91,0.00,,,0.00,WUHU216HW,2013-10-07 12:38:00,
2013-10-07 07:43:00,48.6,46.2,29.48,WNW,293,2.5,4.9,91,0.00,,,0.00,WUHU216HW,2013-10-07 12:43:00,
2013-10-07 07:48:00,48.6,46.2,29.48,WNW,293,3.8,5.8,91,0.00,,,0.00,WUHU216HW,2013-10-07 12:48:00,
2013-10-07 07:53:00,48.8,46.3,29.48,West,270,4.0,5.8,91,0.00,,,0.00,WUHU216HW,2013-10-07 12:53:00,
2013-10-07 07:58:00,49.0,46.4,29.48,SW,225,3.4,4.5,91,0.00,,,0.00,WUHU216HW,2013-10-07 12:58:00,
2013-10-07 08:03:00,49.1,46.6,29.49,WNW,293,3.8,4.7,91,0.00,,,0.00,WUHU216HW,2013-10-07 13:03:00,
2013-10-07 08:08:00,49.3,46.8,29.49,West,270,5.8,5.8,91,0.00,,,0.00,WUHU216HW,2013-10-07 13:08:00,
2013-10-07 08:13:00,49.3,46.8,29.50,NW,315,2.7,5.8,91,0.00,,,0.00,WUHU216HW,2013-10-07 13:13:00,
2013-10-07 08:18:00,49.3,46.8,29.50,West,270,4.7,5.4,91,0.00,,,0.00,WUHU216HW,2013-10-07 13:18:00,
2013-10-07 08:23:00,49.5,47.0,29.50,WNW,293,3.1,5.4,91,0.00,,,0.00,WUHU216HW,2013-10-07 13:23:00,
2013-10-07 08:28:00,49.7,46.8,29.50,WNW,293,3.6,5.4,90,0.00,,,0.00,WUHU216HW,2013-10-07 13:28:00,
2013-10-07 08:33:00,49.7,46.8,29.50,WNW,293,2.0,5.8,90,0.00,,,0.00,WUHU216HW,2013-10-07 13:33:00,
2013-10-07 08:38:00,49.9,47.0,29.51,WNW,293,3.4,5.8,90,0.00,,,0.00,WUHU216HW,2013-10-07 13:38:00,
2013-10-07 08:43:00,50.0,47.2,29.51,WNW,293,4.7,5.6,90,0.00,,,0.00,WUHU216HW,2013-10-07 13:43:00,
2013-10-07 08:48:00,50.2,47.3,29.51,WSW,248,4.5,5.4,90,0.00,,,0.00,WUHU216HW,2013-10-07 13:48:00,
2013-10-07 08:53:00,50.4,47.5,29.51,West,270,5.1,5.4,90,0.00,,,0.00,WUHU216HW,2013-10-07 13:53:00,
2013-10-07 08:58:00,50.6,47.4,29.51,NW,315,2.7,5.1,89,0.00,,,0.00,WUHU216HW,2013-10-07 13:58:00,
2013-10-07 09:03:00,50.8,47.6,29.51,West,270,4.0,7.2,89,0.00,,,0.00,WUHU216HW,2013-10-07 14:03:00,
2013-10-07 09:08:00,51.1,47.6,29.51,West,270,6.5,7.2,88,0.00,,,0.00,WUHU216HW,2013-10-07 14:08:00,
2013-10-07 09:13:00,51.5,47.7,29.52,West,270,4.7,6.5,87,0.00,,,0.00,WUHU216HW,2013-10-07 14:13:00,
2013-10-07 09:18:00,51.7,47.5,29.52,WNW,293,4.9,6.0,86,0.00,,,0.00,WUHU216HW,2013-10-07 14:18:00,
2013-10-07 09:23:00,52.2,48.1,29.52,WSW,248,5.6,6.0,86,0.00,,,0.00,WUHU216HW,2013-10-07 14:23:00,
2013-10-07 09:28:00,52.2,47.5,29.52,NW,315,4.3,5.6,84,0.00,,,0.00,WUHU216HW,2013-10-07 14:28:00,
2013-10-07 09:33:00,52.6,47.9,29.52,West,270,9.2,9.2,84,0.00,,,0.00,WUHU216HW,2013-10-07 14:33:00,
2013-10-07 09:38:00,52.9,47.6,29.53,NW,315,3.1,9.2,82,0.00,,,0.00,WUHU216HW,2013-10-07 14:38:00,
2013-10-07 09:43:00,53.1,47.8,29.53,West,270,6.0,6.0,82,0.00,,,0.00,WUHU216HW,2013-10-07 14:43:00,
2013-10-07 09:48:00,53.3,47.6,29.53,WNW,293,2.2,6.0,81,0.00,,,0.00,WUHU216HW,2013-10-07 14:48:00,
2013-10-07 09:53:00,53.6,47.3,29.54,West,270,4.0,9.4,79,0.00,,,0.00,WUHU216HW,2013-10-07 14:53:00,
2013-10-07 09:58:00,53.6,47.0,29.54,WNW,293,3.6,9.6,78,0.00,,,0.00,WUHU216HW,2013-10-07 14:58:00,
2013-10-07 10:03:00,54.0,47.4,29.54,West,270,5.8,9.6,78,0.00,,,0.00,WUHU216HW,2013-10-07 15:03:00,
2013-10-07 10:08:00,54.0,47.4,29.55,WNW,293,6.3,7.2,78,0.00,,,0.00,WUHU216HW,2013-10-07 15:08:00,
2013-10-07 10:13:00,54.4,47.3,29.55,WNW,293,4.5,7.2,77,0.00,,,0.00,WUHU216HW,2013-10-07 15:13:00,
2013-10-07 10:18:00,54.7,47.3,29.55,WNW,293,2.0,7.2,76,0.00,,,0.00,WUHU216HW,2013-10-07 15:18:00,
2013-10-07 10:23:00,55.3,47.8,29.55,West,270,3.4,6.3,76,0.00,,,0.00,WUHU216HW,2013-10-07 15:23:00,
2013-10-07 10:28:00,55.8,48.0,29.56,WNW,293,4.7,6.3,75,0.00,,,0.00,WUHU216HW,2013-10-07 15:28:00,
2013-10-07 10:33:00,56.0,47.4,29.56,West,270,8.1,8.7,73,0.00,,,0.00,WUHU216HW,2013-10-07 15:33:00,
2013-10-07 10:38:00,56.2,48.0,29.56,NNW,338,3.1,8.7,74,0.00,,,0.00,WUHU216HW,2013-10-07 15:38:00,
2013-10-07 10:43:00,56.5,48.0,29.56,WNW,293,2.9,6.7,73,0.00,,,0.00,WUHU216HW,2013-10-07 15:43:00,
2013-10-07 10:48:00,56.9,47.9,29.56,WNW,293,5.1,11.2,72,0.00,,,0.00,WUHU216HW,2013-10-07 15:48:00,
2013-10-07 10:53:00,57.1,48.1,29.56,West,270,4.5,11.2,72,0.00,,,0.00,WUHU216HW,2013-10-07 15:53:00,
2013-10-07 10:58:00,57.2,47.5,29.56,NNW,338,2.7,5.4,70,0.00,,,0.00,WUHU216HW,2013-10-07 15:58:00,
2013-10-07 11:03:00,57.6,48.2,29.56,WNW,293,3.4,7.6,71,0.00,,,0.00,WUHU216HW,2013-10-07 16:03:00,
2013-10-07 11:08:00,58.0,48.2,29.56,WSW,248,4.0,7.6,70,0.00,,,0.00,WUHU216HW,2013-10-07 16:08:00,
2013-10-07 11:13:00,58.0,48.2,29.56,SSE,158,0.4,6.9,70,0.00,,,0.00,WUHU216HW,2013-10-07 16:13:00,
2013-10-07 11:18:00,58.5,48.8,29.57,West,270,1.8,6.0,70,0.00,,,0.00,WUHU216HW,2013-10-07 16:18:00,
2013-10-07 11:23:00,58.7,47.7,29.57,WNW,293,2.7,5.4,67,0.00,,,0.00,WUHU216HW,2013-10-07 16:23:00,
2013-10-07 11:28:00,58.7,48.5,29.57,WNW,293,6.7,6.7,69,0.00,,,0.00,WUHU216HW,2013-10-07 16:28:00,
2013-10-07 11:33:00,59.0,48.1,29.57,West,270,4.9,6.7,67,0.00,,,0.00,WUHU216HW,2013-10-07 16:33:00,
2013-10-07 11:38:00,59.4,48.4,29.57,West,270,6.3,6.3,67,0.00,,,0.00,WUHU216HW,2013-10-07 16:38:00,
2013-10-07 11:43:00,59.6,47.3,29.57,West,270,9.4,9.4,64,0.00,,,0.00,WUHU216HW,2013-10-07 16:43:00,
2013-10-07 11:48:00,59.6,47.8,29.57,WNW,293,1.8,9.4,65,0.00,,,0.00,WUHU216HW,2013-10-07 16:48:00,
2013-10-07 11:53:00,59.9,48.2,29.57,WNW,293,4.5,4.7,65,0.00,,,0.00,WUHU216HW,2013-10-07 16:53:00,
2013-10-07 11:58:00,60.3,48.5,29.57,West,270,6.3,6.9,65,0.00,,,0.00,WUHU216HW,2013-10-07 16:58:00,
2013-10-07 12:03:00,60.7,47.6,29.57,West,270,6.9,6.9,62,0.00,,,0.00,WUHU216HW,2013-10-07 17:03:00,
2013-10-07 12:08:00,60.8,49.1,29.57,West,270,1.3,6.9,65,0.00,,,0.00,WUHU216HW,2013-10-07 17:08:00,
2013-10-07 12:13:00,61.4,48.3,29.57,West,270,7.4,7.4,62,0.00,,,0.00,WUHU216HW,2013-10-07 17:13:00,
2013-10-07 12:18:00,61.6,48.4,29.57,West,270,1.1,7.4,62,0.00,,,0.00,WUHU216HW,2013-10-07 17:18:00,
2013-10-07 12:23:00,61.9,48.3,29.57,NW,315,3.6,6.0,61,0.00,,,0.00,WUHU216HW,2013-10-07 17:23:00,
2013-10-07 12:28:00,62.1,48.2,29.57,NNW,338,2.5,6.0,60,0.00,,,0.00,WUHU216HW,2013-10-07 17:28:00,
2013-10-07 12:33:00,62.5,47.4,29.57,WNW,293,5.6,6.7,58,0.00,,,0.00,WUHU216HW,2013-10-07 17:33:00,
2013-10-07 12:38:00,62.6,48.2,29.57,West,270,4.3,6.7,59,0.00,,,0.00,WUHU216HW,2013-10-07 17:38:00,
2013-10-07 12:43:00,63.0,47.4,29.57,WNW,293,5.8,5.8,57,0.00,,,0.00,WUHU216HW,2013-10-07 17:43:00,
2013-10-07 12:48:00,63.4,48.2,29.57,West,270,2.5,5.8,58,0.00,,,0.00,WUHU216HW,2013-10-07 17:48:00,
2013-10-07 12:53:00,63.7,47.2,29.57,WNW,293,6.7,6.7,55,0.00,,,0.00,WUHU216HW,2013-10-07 17:53:00,
2013-10-07 12:58:00,63.7,47.2,29.57,WNW,293,5.4,6.9,55,0.00,,,0.00,WUHU216HW,2013-10-07 17:58:00,
2013-10-07 13:03:00,63.7,47.6,29.57,West,270,6.3,10.3,56,0.00,,,0.00,WUHU216HW,2013-10-07 18:03:00,
2013-10-07 13:08:00,64.1,46.5,29.57,NW,315,6.9,10.3,53,0.00,,,0.00,WUHU216HW,2013-10-07 18:08:00,
2013-10-07 13:13:00,64.1,47.0,29.57,WNW,293,5.8,9.2,54,0.00,,,0.00,WUHU216HW,2013-10-07 18:13:00,
2013-10-07 13:18:00,64.3,47.2,29.57,SW,225,3.4,8.5,54,0.00,,,0.00,WUHU216HW,2013-10-07 18:18:00,
2013-10-07 13:23:00,64.8,47.7,29.57,SW,225,3.4,4.7,54,0.00,,,0.00,WUHU216HW,2013-10-07 18:23:00,
2013-10-07 13:28:00,65.2,48.1,29.57,NNW,338,1.8,7.6,54,0.00,,,0.00,WUHU216HW,2013-10-07 18:28:00,
2013-10-07 13:33:00,65.2,47.5,29.57,NW,315,3.4,7.6,53,0.00,,,0.00,WUHU216HW,2013-10-07 18:33:00,
2013-10-07 13:38:00,65.5,47.9,29.57,North,0,2.5,5.4,53,0.00,,,0.00,WUHU216HW,2013-10-07 18:38:00,
2013-10-07 13:43:00,65.9,47.8,29.57,West,270,3.4,7.8,52,0.00,,,0.00,WUHU216HW,2013-10-07 18:43:00,
2013-10-07 13:48:00,65.9,47.3,29.57,NW,315,6.5,7.8,51,0.00,,,0.00,WUHU216HW,2013-10-07 18:48:00,
2013-10-07 13:53:00,66.2,48.2,29.56,NW,315,4.5,6.5,52,0.00,,,0.00,WUHU216HW,2013-10-07 18:53:00,
2013-10-07 13:58:00,66.4,48.3,29.56,West,270,5.4,6.3,52,0.00,,,0.00,WUHU216HW,2013-10-07 18:58:00,
2013-10-07 14:03:00,66.2,47.2,29.56,WNW,293,2.2,9.4,50,0.00,,,0.00,WUHU216HW,2013-10-07 19:03:00,
2013-10-07 14:08:00,66.4,47.8,29.56,South,180,1.1,9.4,51,0.00,,,0.00,WUHU216HW,2013-10-07 19:08:00,
2013-10-07 14:13:00,66.8,47.6,29.56,WNW,293,2.7,3.8,50,0.00,,,0.00,WUHU216HW,2013-10-07 19:13:00,
2013-10-07 14:18:00,66.8,47.6,29.56,NW,315,3.8,5.4,50,0.00,,,0.00,WUHU216HW,2013-10-07 19:18:00,
2013-10-07 14:23:00,67.0,47.3,29.56,West,270,6.9,6.9,49,0.00,,,0.00,WUHU216HW,2013-10-07 19:23:00,
2013-10-07 14:28:00,67.1,46.8,29.56,West,270,5.1,6.9,48,0.00,,,0.00,WUHU216HW,2013-10-07 19:28:00,
2013-10-07 14:33:00,67.0,47.8,29.56,NW,315,5.8,6.3,50,0.00,,,0.00,WUHU216HW,2013-10-07 19:33:00,
2013-10-07 14:38:00,67.0,46.6,29.56,NNW,338,2.7,7.2,48,0.00,,,0.00,WUHU216HW,2013-10-07 19:38:00,
2013-10-07 14:43:00,67.1,48.0,29.56,SSW,203,1.1,7.2,50,0.00,,,0.00,WUHU216HW,2013-10-07 19:43:00,
2013-10-07 14:48:00,67.3,49.2,29.56,SW,225,2.5,5.1,52,0.00,,,0.00,WUHU216HW,2013-10-07 19:48:00,
2013-10-07 14:53:00,67.3,48.6,29.56,West,270,2.0,3.6,51,0.00,,,0.00,WUHU216HW,2013-10-07 19:53:00,
2013-10-07 14:58:00,67.7,49.0,29.56,WNW,293,5.4,5.4,51,0.00,,,0.00,WUHU216HW,2013-10-07 19:58:00,
2013-10-07 15:03:00,67.7,47.9,29.56,West,270,5.4,5.4,49,0.00,,,0.00,WUHU216HW,2013-10-07 20:03:00,
2013-10-07 15:08:00,67.7,48.4,29.56,West,270,2.9,6.3,50,0.00,,,0.00,WUHU216HW,2013-10-07 20:08:00,
2013-10-07 15:13:00,67.7,47.3,29.56,WNW,293,6.3,7.6,48,0.00,,,0.00,WUHU216HW,2013-10-07 20:13:00,
2013-10-07 15:18:00,67.5,46.5,29.56,North,0,4.0,7.6,47,0.00,,,0.00,WUHU216HW,2013-10-07 20:18:00,
2013-10-07 15:23:00,67.7,47.3,29.56,NW,315,4.7,6.7,48,0.00,,,0.00,WUHU216HW,2013-10-07 20:23:00,
2013-10-07 15:28:00,67.9,47.4,29.56,WNW,293,2.2,6.9,48,0.00,,,0.00,WUHU216HW,2013-10-07 20:28:00,
2013-10-07 15:33:00,68.0,47.0,29.56,WNW,293,5.1,6.9,47,0.00,,,0.00,WUHU216HW,2013-10-07 20:33:00,
2013-10-07 15:38:00,68.0,47.6,29.56,SW,225,2.2,6.9,48,0.00,,,0.00,WUHU216HW,2013-10-07 20:38:00,
2013-10-07 15:43:00,68.4,48.5,29.56,NNW,338,4.3,6.9,49,0.00,,,0.00,WUHU216HW,2013-10-07 20:43:00,
2013-10-07 15:48:00,68.4,47.9,29.56,WNW,293,0.9,5.4,48,0.00,,,0.00,WUHU216HW,2013-10-07 20:48:00,
2013-10-07 15:53:00,68.8,47.1,29.56,WSW,248,2.0,5.4,46,0.00,,,0.00,WUHU216HW,2013-10-07 20:53:00,
2013-10-07 15:58:00,68.8,48.2,29.56,West,270,2.2,4.0,48,0.00,,,0.00,WUHU216HW,2013-10-07 20:58:00,
2013-10-07 16:03:00,68.8,47.6,29.56,NW,315,1.1,3.4,47,0.00,,,0.00,WUHU216HW,2013-10-07 21:03:00,
2013-10-07 16:08:00,68.6,47.5,29.56,WSW,248,2.5,4.7,47,0.00,,,0.00,WUHU216HW,2013-10-07 21:08:00,
2013-10-07 16:12:00,68.4,47.4,29.56,SSW,203,2.7,4.7,47,0.00,,,0.00,WUHU216HW,2013-10-07 21:12:00,
2013-10-07 16:18:00,68.6,48.7,29.56,West,270,2.2,3.8,49,0.00,,,0.00,WUHU216HW,2013-10-07 21:18:00,
2013-10-07 16:22:00,68.6,47.5,29.56,WSW,248,5.1,5.1,47,0.00,,,0.00,WUHU216HW,2013-10-07 21:22:00,
2013-10-07 16:27:00,68.4,47.4,29.56,WNW,293,8.1,8.1,47,0.00,,,0.00,WUHU216HW,2013-10-07 21:27:00,
2013-10-07 16:32:00,68.2,47.8,29.56,NNE,23,1.8,8.1,48,0.00,,,0.00,WUHU216HW,2013-10-07 21:32:00,
2013-10-07 16:37:00,68.0,47.6,29.56,SW,225,0.7,4.5,48,0.00,,,0.00,WUHU216HW,2013-10-07 21:37:00,
2013-10-07 16:42:00,68.0,47.0,29.56,West,270,3.4,4.0,47,0.00,,,0.00,WUHU216HW,2013-10-07 21:42:00,
2013-10-07 16:47:00,67.9,47.4,29.56,West,270,2.5,3.6,48,0.00,,,0.00,WUHU216HW,2013-10-07 21:47:00,
2013-10-07 16:52:00,67.9,47.4,29.56,West,270,1.8,4.5,48,0.00,,,0.00,WUHU216HW,2013-10-07 21:52:00,
2013-10-07 16:57:00,67.9,46.8,29.56,NW,315,2.5,4.5,47,0.00,,,0.00,WUHU216HW,2013-10-07 21:57:00,
2013-10-07 17:02:00,67.9,47.4,29.56,West,270,1.1,4.0,48,0.00,,,0.00,WUHU216HW,2013-10-07 22:02:00,
2013-10-07 17:07:00,68.0,47.0,29.56,SW,225,4.0,4.0,47,0.00,,,0.00,WUHU216HW,2013-10-07 22:07:00,
2013-10-07 17:12:00,67.9,46.8,29.56,WSW,248,2.2,4.0,47,0.00,,,0.00,WUHU216HW,2013-10-07 22:12:00,
2013-10-07 17:17:00,67.9,46.8,29.56,West,270,2.0,3.1,47,0.00,,,0.00,WUHU216HW,2013-10-07 22:17:00,
2013-10-07 17:22:00,67.7,46.1,29.56,NW,315,2.9,3.4,46,0.00,,,0.00,WUHU216HW,2013-10-07 22:22:00,
2013-10-07 17:27:00,67.7,46.1,29.56,WNW,293,4.0,4.0,46,0.00,,,0.00,WUHU216HW,2013-10-07 22:27:00,
2013-10-07 17:32:00,67.7,47.9,29.57,WNW,293,0.9,4.0,49,0.00,,,0.00,WUHU216HW,2013-10-07 22:32:00,
2013-10-07 17:37:00,67.7,49.0,29.57,WNW,293,0.7,4.0,51,0.00,,,0.00,WUHU216HW,2013-10-07 22:37:00,
2013-10-07 17:42:00,67.7,48.4,29.56,WNW,293,1.1,2.5,50,0.00,,,0.00,WUHU216HW,2013-10-07 22:42:00,
2013-10-07 17:47:00,67.7,49.0,29.57,SW,225,0.0,2.5,51,0.00,,,0.00,WUHU216HW,2013-10-07 22:47:00,
2013-10-07 17:52:00,67.7,49.0,29.57,WNW,293,0.4,1.1,51,0.00,,,0.00,WUHU216HW,2013-10-07 22:52:00,
2013-10-07 17:57:00,67.7,49.0,29.57,WNW,293,1.1,1.1,51,0.00,,,0.00,WUHU216HW,2013-10-07 22:57:00,
2013-10-07 18:02:00,67.5,48.8,29.57,WSW,248,0.9,1.8,51,0.00,,,0.00,WUHU216HW,2013-10-07 23:02:00,
2013-10-07 18:07:00,67.3,48.2,29.57,South,180,1.3,1.8,50,0.00,,,0.00,WUHU216HW,2013-10-07 23:07:00,
2013-10-07 18:12:00,67.1,48.4,29.57,SSW,203,0.0,1.3,51,0.00,,,0.00,WUHU216HW,2013-10-07 23:12:00,
2013-10-07 18:17:00,67.0,48.3,29.57,WSW,248,0.0,0.9,51,0.00,,,0.00,WUHU216HW,2013-10-07 23:17:00,
2013-10-07 18:22:00,66.8,48.6,29.58,WSW,248,0.0,0.2,52,0.00,,,0.00,WUHU216HW,2013-10-07 23:22:00,
2013-10-07 18:27:00,66.6,48.4,29.58,WSW,248,0.0,0.0,52,0.00,,,0.00,WUHU216HW,2013-10-07 23:27:00,
2013-10-07 18:32:00,66.4,48.3,29.58,SSW,203,0.0,0.0,52,0.00,,,0.00,WUHU216HW,2013-10-07 23:32:00,
2013-10-07 18:37:00,66.1,48.4,29.58,SSW,203,0.0,0.0,53,0.00,,,0.00,WUHU216HW,2013-10-07 23:37:00,
2013-10-07 18:42:00,65.9,48.8,29.58,SSW,203,0.0,0.0,54,0.00,,,0.00,WUHU216HW,2013-10-07 23:42:00,
2013-10-07 18:47:00,65.5,48.4,29.58,SSW,203,0.0,0.0,54,0.00,,,0.00,WUHU216HW,2013-10-07 23:47:00,
2013-10-07 18:52:00,65.2,48.1,29.58,SSW,203,0.0,0.0,54,0.00,,,0.00,WUHU216HW,2013-10-07 23:52:00,
2013-10-07 18:57:00,64.8,48.2,29.58,SSW,203,0.0,0.0,55,0.00,,,0.00,WUHU216HW,2013-10-07 23:57:00,
2013-10-07 19:02:00,64.6,48.0,29.58,SSW,203,0.0,0.0,55,0.00,,,0.00,WUHU216HW,2013-10-08 00:02:00,
2013-10-07 19:07:00,64.3,48.2,29.58,SSW,203,0.0,0.0,56,0.00,,,0.00,WUHU216HW,2013-10-08 00:07:00,
2013-10-07 19:12:00,64.3,48.6,29.58,SSW,203,0.0,0.0,57,0.00,,,0.00,WUHU216HW,2013-10-08 00:12:00,
2013-10-07 19:17:00,64.1,48.4,29.58,WSW,248,0.0,0.0,57,0.00,,,0.00,WUHU216HW,2013-10-08 00:17:00,
2013-10-07 19:22:00,64.1,49.0,29.58,WSW,248,0.0,0.0,58,0.00,,,0.00,WUHU216HW,2013-10-08 00:22:00,
2013-10-07 19:27:00,64.1,49.0,29.58,WSW,248,0.0,0.0,58,0.00,,,0.00,WUHU216HW,2013-10-08 00:27:00,
2013-10-07 19:32:00,64.1,49.0,29.58,WSW,248,0.0,0.0,58,0.00,,,0.00,WUHU216HW,2013-10-08 00:32:00,
2013-10-07 19:37:00,63.9,48.8,29.59,WSW,248,0.0,0.0,58,0.00,,,0.00,WUHU216HW,2013-10-08 00:37:00,
2013-10-07 19:42:00,63.7,48.6,29.59,WSW,248,0.0,0.0,58,0.00,,,0.00,WUHU216HW,2013-10-08 00:42:00,
2013-10-07 19:47:00,63.7,48.6,29.59,WSW,248,0.0,0.0,58,0.00,,,0.00,WUHU216HW,2013-10-08 00:47:00,
2013-10-07 19:52:00,63.4,47.8,29.59,WSW,248,0.0,0.0,57,0.00,,,0.00,WUHU216HW,2013-10-08 00:52:00,
2013-10-07 19:57:00,62.8,47.8,29.59,WSW,248,0.0,0.0,58,0.00,,,0.00,WUHU216HW,2013-10-08 00:57:00,
2013-10-07 20:02:00,62.3,47.4,29.59,WSW,248,0.0,0.0,58,0.00,,,0.00,WUHU216HW,2013-10-08 01:02:00,
2013-10-07 20:07:00,61.9,47.4,29.60,SSE,158,0.0,0.0,59,0.00,,,0.00,WUHU216HW,2013-10-08 01:07:00,
2013-10-07 20:12:00,61.4,47.0,29.60,SE,135,0.0,0.4,59,0.00,,,0.00,WUHU216HW,2013-10-08 01:12:00,
2013-10-07 20:17:00,61.0,46.6,29.60,ESE,113,0.9,1.1,59,0.00,,,0.00,WUHU216HW,2013-10-08 01:17:00,
2013-10-07 20:22:00,60.5,46.6,29.61,East,90,0.0,1.1,60,0.00,,,0.00,WUHU216HW,2013-10-08 01:22:00,
2013-10-07 20:27:00,60.1,46.3,29.61,ESE,113,0.4,0.7,60,0.00,,,0.00,WUHU216HW,2013-10-08 01:27:00,
2013-10-07 20:32:00,59.8,46.4,29.61,East,90,0.0,0.4,61,0.00,,,0.00,WUHU216HW,2013-10-08 01:32:00,
2013-10-07 20:37:00,59.6,46.2,29.61,East,90,0.0,0.0,61,0.00,,,0.00,WUHU216HW,2013-10-08 01:37:00,
2013-10-07 20:42:00,59.4,46.4,29.61,East,90,0.0,0.0,62,0.00,,,0.00,WUHU216HW,2013-10-08 01:42:00,
2013-10-07 20:47:00,59.2,46.2,29.61,East,90,0.0,0.0,62,0.00,,,0.00,WUHU216HW,2013-10-08 01:47:00,
2013-10-07 20:52:00,59.2,46.2,29.61,East,90,0.0,0.0,62,0.00,,,0.00,WUHU216HW,2013-10-08 01:52:00,
2013-10-07 20:57:00,58.9,45.8,29.61,East,90,0.0,0.0,62,0.00,,,0.00,WUHU216HW,2013-10-08 01:57:00,
2013-10-07 21:02:00,58.9,45.8,29.61,East,90,0.0,0.0,62,0.00,,,0.00,WUHU216HW,2013-10-08 02:02:00,
2013-10-07 21:07:00,58.7,45.7,29.62,ESE,113,0.0,0.0,62,0.00,,,0.00,WUHU216HW,2013-10-08 02:07:00,
2013-10-07 21:12:00,58.7,45.7,29.62,East,90,0.0,0.0,62,0.00,,,0.00,WUHU216HW,2013-10-08 02:12:00,
2013-10-07 21:17:00,58.5,45.6,29.62,ESE,113,0.0,0.0,62,0.00,,,0.00,WUHU216HW,2013-10-08 02:17:00,
2013-10-07 21:22:00,58.3,45.7,29.62,ESE,113,0.0,0.2,63,0.00,,,0.00,WUHU216HW,2013-10-08 02:22:00,
2013-10-07 21:27:00,58.1,45.6,29.63,East,90,0.0,0.4,63,0.00,,,0.00,WUHU216HW,2013-10-08 02:27:00,
2013-10-07 21:32:00,58.0,45.5,29.63,East,90,0.0,0.4,63,0.00,,,0.00,WUHU216HW,2013-10-08 02:32:00,
2013-10-07 21:37:00,58.0,45.5,29.63,East,90,0.0,0.0,63,0.00,,,0.00,WUHU216HW,2013-10-08 02:37:00,
2013-10-07 21:42:00,58.0,45.8,29.63,East,90,0.0,0.0,64,0.00,,,0.00,WUHU216HW,2013-10-08 02:42:00,
2013-10-07 21:47:00,57.8,45.6,29.63,East,90,0.0,0.0,64,0.00,,,0.00,WUHU216HW,2013-10-08 02:47:00,
2013-10-07 21:52:00,57.8,45.6,29.63,East,90,0.0,0.4,64,0.00,,,0.00,WUHU216HW,2013-10-08 02:52:00,
2013-10-07 21:57:00,57.6,45.5,29.63,East,90,0.0,0.4,64,0.00,,,0.00,WUHU216HW,2013-10-08 02:57:00,
2013-10-07 22:02:00,57.4,45.3,29.63,East,90,0.0,0.0,64,0.00,,,0.00,WUHU216HW,2013-10-08 03:02:00,
2013-10-07 22:07:00,57.4,45.3,29.63,East,90,0.0,0.0,64,0.00,,,0.00,WUHU216HW,2013-10-08 03:07:00,
2013-10-07 22:12:00,57.2,45.2,29.64,ESE,113,0.0,0.0,64,0.00,,,0.00,WUHU216HW,2013-10-08 03:12:00,
2013-10-07 22:17:00,57.2,45.2,29.64,East,90,0.0,0.2,64,0.00,,,0.00,WUHU216HW,2013-10-08 03:17:00,
2013-10-07 22:22:00,56.9,45.2,29.64,ESE,113,0.4,0.4,65,0.00,,,0.00,WUHU216HW,2013-10-08 03:22:00,
2013-10-07 22:27:00,56.7,45.0,29.64,ESE,113,0.0,0.4,65,0.00,,,0.00,WUHU216HW,2013-10-08 03:27:00,
2013-10-07 22:32:00,56.5,44.8,29.64,ESE,113,0.0,0.0,65,0.00,,,0.00,WUHU216HW,2013-10-08 03:32:00,
2013-10-07 22:37:00,56.5,44.8,29.64,East,90,0.0,0.0,65,0.00,,,0.00,WUHU216HW,2013-10-08 03:37:00,
2013-10-07 22:42:00,56.3,45.1,29.64,East,90,0.0,0.0,66,0.00,,,0.00,WUHU216HW,2013-10-08 03:42:00,
2013-10-07 22:47:00,56.2,44.9,29.64,East,90,0.0,0.0,66,0.00,,,0.00,WUHU216HW,2013-10-08 03:47:00,
2013-10-07 22:52:00,56.2,44.9,29.64,East,90,0.0,0.0,66,0.00,,,0.00,WUHU216HW,2013-10-08 03:52:00,
2013-10-07 22:57:00,56.0,44.7,29.64,East,90,0.0,0.0,66,0.00,,,0.00,WUHU216HW,2013-10-08 03:57:00,
2013-10-07 23:01:00,55.8,45.0,29.64,East,90,0.0,0.0,67,0.00,,,0.00,WUHU216HW,2013-10-08 04:01:00,
2013-10-07 23:06:00,55.6,44.8,29.65,ESE,113,0.0,0.0,67,0.00,,,0.00,WUHU216HW,2013-10-08 04:06:00,
2013-10-07 23:11:00,55.4,45.1,29.65,ESE,113,0.0,0.0,68,0.00,,,0.00,WUHU216HW,2013-10-08 04:11:00,
2013-10-07 23:16:00,55.3,44.9,29.64,ESE,113,0.0,0.0,68,0.00,,,0.00,WUHU216HW,2013-10-08 04:16:00,
2013-10-07 23:21:00,55.3,44.9,29.65,ESE,113,0.0,0.0,68,0.00,,,0.00,WUHU216HW,2013-10-08 04:21:00,
2013-10-07 23:27:00,55.1,44.7,29.64,SE,135,0.0,0.0,68,0.00,,,0.00,WUHU216HW,2013-10-08 04:27:00,
2013-10-07 23:32:00,54.9,44.9,29.64,East,90,0.0,0.7,69,0.00,,,0.00,WUHU216HW,2013-10-08 04:32:00,
2013-10-07 23:37:00,54.7,44.7,29.65,East,90,0.0,0.7,69,0.00,,,0.00,WUHU216HW,2013-10-08 04:37:00,
2013-10-07 23:42:00,54.5,44.6,29.65,East,90,0.0,0.4,69,0.00,,,0.00,WUHU216HW,2013-10-08 04:42:00,
2013-10-07 23:47:00,54.4,44.5,29.65,East,90,0.0,0.4,69,0.00,,,0.00,WUHU216HW,2013-10-08 04:47:00,
2013-10-07 23:52:00,54.2,44.6,29.65,ESE,113,0.0,0.4,70,0.00,,,0.00,WUHU216HW,2013-10-08 04:52:00,
2013-10-07 23:57:00,54.0,44.5,29.65,ESE,113,0.0,0.0,70,0.00,,,0.00,WUHU216HW,2013-10-08 04:57:00,